Weather History for KPBF - January, 2013

Change the Weather History Date:

Friday, January 25, 2013

  Actual Average Record
Temperature  
Mean Temperature 39 °F 43 °F  
Max Temperature 45 °F 52 °F 82 °F (1950)
Min Temperature 33 °F 33 °F 10 °F (1905)
Degree Days  
Heating Degree Days 26 22  
Month to date heating degree days 544 573  
Since 1 July heating degree days 1608 1726  
Cooling Degree Days 0 0  
Month to date cooling degree days 3 0  
Year to date cooling degree days 3 0  
Moisture  
Dew Point 34 °F    
Average Humidity 85    
Maximum Humidity 100    
Minimum Humidity 70    
Precipitation  
Precipitation 0.01 in 0.12 in 1.62 in (1976)
Month to date precipitation 5.05 3.00  
Year to date precipitation 5.05 3.00  
Snow  
Snow 0.00 in 0.20 in 3.50 in (1948)
Month to date snowfall 0.1 1.6  
Since 1 July snowfall 2.1 1.8  
Snow Depth 0.00 in    
Sea Level Pressure  
Sea Level Pressure 30.20 in    
Wind  
Wind Speed 4 mph (North)    
Max Wind Speed 15 mph    
Max Gust Speed 18 mph    
Visibility 5 miles    
Events Rain , Snow    
T = Trace of Precipitation, MM = Missing Value Source: NWS Daily Summary

Daily Weather History Graph

Daily Weather History Graph

Search for Another Location

Airport or City:

Trip Planner

Search our weather history database for the weather conditions in past years. The results will help you decide how hot, cold, wet, or windy it might be!

Date:

Astronomy

Jan. 25, 2013 Rise Set
Actual Time 7:09 AM CST 5:31 PM CST
Civil Twilight 6:42 AM CST 5:58 PM CST
Nautical Twilight 6:12 AM CST 6:28 PM CST
Astronomical Twilight 5:42 AM CST 6:58 PM CST
Moon 4:28 PM CST (1/25) 5:48 AM CST (1/25)
Length of Visible Light 11h 15m
Length of Day
10h 22m
Waxing Gibbous, 98% of the Moon is Illuminated
Jan 25
Waxing Gibbous
Jan 26
Full
Feb 3
Last Quarter
Feb 10
New
Feb 17
First Quarter

Hourly Weather History & Observations

Time (CST) Temp. Windchill Dew Point Humidity Pressure Visibility Wind Dir Wind Speed Gust Speed Precip Events Conditions
12:53 AM 37.0 °F 32.4 °F 28.0 °F 70% 30.20 in 10.0 mi North 5.8 mph - N/A   Overcast
1:01 AM 37.4 °F 33.8 °F 28.4 °F 70% 30.18 in 10.0 mi NE 4.6 mph - N/A   Overcast
1:53 AM 37.0 °F 31.6 °F 28.9 °F 73% 30.15 in 10.0 mi SE 6.9 mph - N/A   Overcast
2:53 AM 37.9 °F - 30.0 °F 73% 30.13 in 10.0 mi Calm Calm - N/A   Overcast
3:53 AM 39.0 °F - 30.0 °F 70% 30.10 in 10.0 mi Calm Calm - N/A   Overcast
4:28 AM 39.2 °F 37.0 °F 30.2 °F 70% 30.09 in 10.0 mi NNE 3.5 mph - N/A   Overcast
4:53 AM 39.9 °F 35.8 °F 32.0 °F 73% 30.09 in 10.0 mi North 5.8 mph - N/A   Overcast
5:12 AM 39.2 °F 34.2 °F 32.0 °F 75% 30.09 in 10.0 mi North 6.9 mph - N/A   Overcast
5:53 AM 37.9 °F 31.5 °F 30.0 °F 73% 30.12 in 10.0 mi NNW 9.2 mph - N/A   Overcast
6:53 AM 37.0 °F 31.0 °F 28.0 °F 70% 30.15 in 10.0 mi North 8.1 mph - N/A   Overcast
7:37 AM 33.8 °F 25.8 °F 30.2 °F 87% 30.17 in 2.5 mi North 10.4 mph - 0.00 in Snow Light Snow
7:53 AM 34.0 °F 26.6 °F 32.0 °F 92% 30.18 in 1.2 mi NNW 9.2 mph - 0.00 in Snow Light Snow
8:13 AM 33.8 °F 27.0 °F 33.8 °F 100% 30.18 in 1.8 mi NNW 8.1 mph - 0.00 in Rain Light Freezing Rain
8:26 AM 33.8 °F 28.6 °F 33.8 °F 100% 30.17 in 1.5 mi NNW 5.8 mph - 0.00 in Rain Light Freezing Rain
8:53 AM 34.0 °F 28.0 °F 34.0 °F 100% 30.19 in 2.0 mi NNW 6.9 mph - 0.00 in Rain Light Freezing Rain
9:40 AM 33.8 °F 26.4 °F 33.8 °F 100% 30.23 in 2.5 mi North 9.2 mph - 0.01 in   Overcast
9:50 AM 35.6 °F 28.6 °F 33.8 °F 93% 30.22 in 2.0 mi North 9.2 mph - 0.01 in Rain Light Freezing Rain
9:53 AM 35.1 °F 28.6 °F 34.0 °F 96% 30.23 in 2.0 mi North 8.1 mph - 0.01 in Rain Light Freezing Rain
10:11 AM 35.6 °F 30.7 °F 33.8 °F 93% 30.23 in 1.8 mi North 5.8 mph - 0.00 in Rain Light Freezing Rain
10:20 AM 35.6 °F 29.9 °F 33.8 °F 93% 30.23 in 2.0 mi North 6.9 mph - 0.00 in Rain Light Freezing Rain
10:51 AM 35.6 °F 30.7 °F 35.6 °F 100% 30.22 in 2.5 mi NNW 5.8 mph - 0.00 in   Overcast
10:53 AM 36.0 °F 32.1 °F 35.1 °F 97% 30.23 in 2.5 mi NNW 4.6 mph - 0.00 in Rain Light Freezing Rain
11:17 AM 35.6 °F 31.7 °F 35.6 °F 100% 30.22 in 3.0 mi North 4.6 mph - 0.00 in   Overcast
11:23 AM 35.6 °F 30.7 °F 35.6 °F 100% 30.21 in 3.0 mi NNW 5.8 mph - 0.00 in Rain Light Freezing Rain
11:53 AM 37.0 °F 33.3 °F 36.0 °F 96% 30.20 in 4.0 mi North 4.6 mph - 0.00 in   Overcast
12:49 PM 37.4 °F 33.8 °F 37.4 °F 100% 30.18 in 4.0 mi NNW 4.6 mph - 0.00 in   Overcast
12:53 PM 37.9 °F 35.5 °F 37.0 °F 97% 30.19 in 4.0 mi NNW 3.5 mph - 0.00 in   Overcast
1:09 PM 37.4 °F 34.9 °F 37.4 °F 100% 30.18 in 4.0 mi NNW 3.5 mph - N/A   Overcast
1:53 PM 39.0 °F 34.8 °F 37.9 °F 96% 30.17 in 6.0 mi NNW 5.8 mph - N/A   Overcast
2:04 PM 39.2 °F 37.0 °F 37.4 °F 93% 30.17 in 6.0 mi North 3.5 mph - N/A   Overcast
2:45 PM 42.8 °F 39.3 °F 39.2 °F 87% 30.17 in 8.0 mi NNE 5.8 mph - N/A   Overcast
2:53 PM 42.1 °F 37.7 °F 39.0 °F 89% 30.18 in 8.0 mi North 6.9 mph - N/A   Overcast
3:53 PM 44.1 °F 40.8 °F 39.9 °F 85% 30.18 in 9.0 mi North 5.8 mph - N/A   Overcast
4:53 PM 45.0 °F 42.6 °F 39.0 °F 80% 30.19 in 10.0 mi NNE 4.6 mph - N/A   Overcast
5:11 PM 44.6 °F - 39.2 °F 81% 30.19 in 9.0 mi Calm Calm - N/A   Scattered Clouds
5:53 PM 42.1 °F 39.2 °F 37.9 °F 85% 30.21 in 10.0 mi ENE 4.6 mph - N/A   Clear
6:53 PM 41.0 °F - 37.9 °F 89% 30.23 in 9.0 mi Calm Calm - N/A   Clear
7:53 PM 39.0 °F - 37.0 °F 93% 30.23 in 6.0 mi Calm Calm - N/A   Clear
8:53 PM 37.0 °F - 36.0 °F 96% 30.23 in 3.0 mi Calm Calm - N/A   Clear
9:25 PM 35.6 °F - 35.6 °F 100% 30.23 in 2.5 mi Calm Calm - N/A   Clear
9:49 PM 37.4 °F - 35.6 °F 93% 30.24 in 1.2 mi Calm Calm - N/A   Clear
9:53 PM 37.0 °F - 36.0 °F 96% 30.24 in 1.8 mi Calm Calm - N/A   Clear
10:01 PM 35.6 °F - 35.6 °F 100% 30.24 in 0.8 mi Calm Calm - N/A   Mist
10:13 PM 33.8 °F 29.6 °F 33.8 °F 100% 30.25 in 1.2 mi NNW 4.6 mph - N/A   Partly Cloudy
10:22 PM 35.6 °F 32.8 °F 35.6 °F 100% 30.25 in 2.5 mi NNW 3.5 mph - N/A   Partly Cloudy
10:46 PM 35.6 °F - 35.6 °F 100% 30.25 in 4.0 mi Calm Calm - N/A   Clear
10:53 PM 36.0 °F - 36.0 °F 100% 30.25 in 4.0 mi Calm Calm - N/A   Clear
11:33 PM 35.6 °F - 33.8 °F 93% 30.25 in 1.8 mi Calm Calm - N/A   Clear
11:51 PM 33.8 °F 29.6 °F 32.0 °F 93% 30.25 in 3.0 mi North 4.6 mph - N/A   Clear
11:53 PM 34.0 °F 29.8 °F 33.1 °F 96% 30.25 in 4.0 mi NNE 4.6 mph - N/A   Clear